SCP
0 0 0 0 0 0 0 0 0 0 0 0 0 0 0 0 0 0 0 0 0 0 0 0 0 0 0 0 0 0 0 0 0 0 0 0 -0 -0 -0 -0 -0 -0 -0 -0
0 0 0 0 0 0 0 0 0 0 0 0 0 0 0 0 0 0 0 0 0 0 0 0 0 0 0 0 0 0 0 0 0 0 0 -0 -0 -0 -0 -0 -0 -0 -0 -0
0 0 0 0 0 0 0 0 0 0 0 0 0 0 0 0 0 0 0 0 0 0 0 0 0 0 0 0 0 0 0 0 0 -0 -0 -0 -0 -0 -0 -0 -0 -0 -0 0
0 0 0 0 0 0 0 0 0 0 0 0 0 0 0 0 0 0 0 0 0 0 0 0 0 0 0 0 0 0 0 0 -0 -0 -0 -0 -0 -0 -0 -0 -0 -0 0 0
0 0 0 0 0 0 0 0 0 0 0 0 0 0 0 0 0 0 0 0 0 0 0 0 0 0 0 0 0 0 0 0 -0 -0 -0 -0 -0 -0 0 0 0 0 0 0
0 0 0 0 0 0 0 0 0 0 0 0 0 0 0 0 0 0 0 0 0 0 0 0 0 0 0 0 0 0 0 0 -0 -0 -0 0 0 0 0 0 0 0 0 0
0 0 0 0 0 0 0 0 0 0 0 0 0 0 0 0 0 0 0 0 0 0 0 0 0 0 0 0 0 0 0 0 0 0 0 0 0 0 0 0 0 0 0 0
0 0 0 0 0 0 0 0 0 0 0 0 0 0 0 0 0 0 0 0 0 0 0 0 0 0 0 0 0 0 0 0 0 0 0 0 0 0 0 0 0 0 0 0
0 0 0 0 0 0 0 0 0 0 0 0 0 0 0 0 0 0 0 0 0 0 0 0 0 0 0 0 0 0 0 0 0 0 0 0 0 0 0 0 0 0 0 0
0 0 0 0 0 0 0 0 0 0 0 0 0 0 0 0 0 0 0 0 0 0 0 0 0 0 0 0 0 0 0 0 0 0 0 0 0 0 0 0 0 0 0 0
0 0 0 0 0 0 0 0 0 0 0 0 0 0 0 0 0 0 0 0 0 0 0 0 0 0 0 0 0 0 0 0 0 0 0 0 0 0 0 0 -0 -0 0 0
0 0 0 0 0 0 0 0 0 0 0 0 0 0 0 0 0 0 0 0 0 0 0 0 0 0 0 0 0 0 0 0 0 0 0 0 0 0 0 0 0 -0 0 0
0 -0 -0 -0 0 0 0 0 0 0 0 0 0 0 0 0 0 0 0 0 0 0 0 0 0 0 0 0 0 0 0 0 0 0 0 0 0 0 0 0 0 0 0 0
0 0 0 0 0 0 0 0 0 0 0 0 0 0 0 0 0 0 0 0 0 0 0 0 0 0 0 0 0 0 0 0 0 0 0 0 0 0 0 0 0 0 0 0
0 -0 -0 -0 -0 -0 -0 0 0 0 0 0 0 0 0 0 0 0 0 0 0 0 0 0 0 0 0 0 0 0 0 0 0 0 0 0 0 0 0 0 0 0 0 0
0 -0 -0 -0 -0 0 0 0 0 0 0 0 0 0 0 0 0 0 0 0 0 0 0 0 0 0 0 0 0 0 0 0 0 0 0 0 0 0 0 0 0 0 0 0
0 0 0 0 0 0 0 0 0 0 0 0 0 0 0 0 0 0 0 0 0 0 0 0 0 0 0 0 0 0 0 0 0 0 0 0 0 0 0 0 0 0 0 0
0 0 0 0 0 0 0 0 0 0 0 0 0 0 0 0 0 0 0 0 0 0 0 0 0 0 0 0 0 0 0 0 0 0 0 0 0 0 0 0 0 0 0 0
0 0 0 0 0 0 0 0 0 0 0 0 0 0 0 0 0 0 0 0 0 0 0 0 0 0 0 0 0 0 0 0 0 0 0 0 0 0 0 0 0 0 0 0
0 0 0 0 0 0 0 0 0 0 0 0 0 0 0 0 0 0 0 0 0 0 0 0 0 0 0 0 0 0 0 0 0 0 0 0 0 0 0 0 0 0 0 0
0 0 0 0 0 0 0 0 0 0 0 0 0 0 0 0 0 0 0 0 0 0 0 0 0 0 0 0 0 0 0 0 0 0 0 0 0 0 0 0 0 0 0 0
0 0 0 0 0 0 0 0 0 0 0 0 0 0 0 0 0 0 0 0 0 0 0 0 0 0 0 0 0 0 0 0 0 0 0 0 0 0 0 0 0 0 0 0
0 0 0 0 0 0 0 0 0 0 0 0 0 0 0 0 0 0 0 0 0 0 0 0 0 0 0 0 0 0 0 0 0 0 0 0 0 0 0 0 0 0 0 0
0 0 0 0 0 0 0 0 0 0 0 0 0 0 0 0 0 0 0 0 0 0 0 0 0 0 0 0 0 0 0 0 0 0 0 0 0 0 0 0 0 0 0 0
0 0 0 0 0 0 0 0 0 0 0 0 0 0 0 0 0 0 0 0 0 0 0 0 0 0 0 0 0 0 0 0 0 0 0 0 0 0 0 0 0 0 0 0
0 0 0 0 0 0 0 0 0 0 0 0 0 0 0 0 0 0 0 0 0 0 0 0 0 0 0 0 0 0 0 0 0 0 0 0 0 0 0 0 0 0 0 0
0 0 0 0 0 0 0 0 0 0 0 0 0 0 0 0 0 0 0 0 0 0 0 0 0 0 0 0 0 0 0 0 0 0 0 0 0 0 0 0 0 0 0 0
Wind_Speed_500mb
4 3 3 3 1 11 4 5 8 4 7 14 20 29 43 60 50 42 34 26 19 14 7 6 9 12 13 13 16 21 27 31 38 45 51 56 62 67 70 73 78 81 85 86
5 5 11 8 24 19 5 14 7 9 7 4 21 34 47 52 50 41 32 23 14 6 4 7 10 12 16 20 24 28 36 43 48 53 59 64 68 73 78 79 81 83 84 86
5 4 3 8 15 25 13 19 22 14 11 25 15 33 44 48 43 39 30 20 10 2 6 9 13 16 18 22 28 35 43 51 57 62 64 66 70 74 78 82 83 85 84 83
3 2 1 4 5 8 19 16 11 8 25 40 44 40 46 40 40 33 24 13 6 4 5 9 12 17 22 28 35 42 49 56 60 62 65 67 71 76 79 81 81 81 80 81
6 4 8 6 8 12 12 12 9 16 15 36 51 45 24 32 30 25 18 10 7 7 7 10 14 19 28 34 39 46 52 55 59 63 68 72 75 75 73 75 75 77 77 78
4 7 12 6 2 5 4 8 25 28 43 51 51 17 9 36 31 26 16 10 7 5 7 11 18 25 32 39 46 50 52 54 58 63 67 69 66 67 70 72 73 76 77 77
4 5 13 7 1 5 10 9 39 53 51 53 12 8 34 40 31 21 14 10 8 7 10 18 25 31 38 44 48 48 50 53 56 58 57 56 59 63 68 71 73 76 79 81
6 4 12 2 4 11 4 1 38 46 50 45 24 28 38 33 24 17 11 10 10 11 15 22 29 36 41 43 45 46 49 50 48 49 51 54 58 60 64 69 73 77 83 87
13 8 3 7 8 10 10 33 39 45 48 47 29 26 24 21 19 17 15 12 9 15 22 29 34 38 40 41 42 43 44 44 44 44 47 53 58 60 62 66 74 80 87 92
5 5 20 15 7 10 29 42 40 42 42 33 25 21 21 21 20 16 12 9 12 19 26 31 34 36 38 37 39 41 40 40 42 44 46 49 51 56 62 70 76 81 86 91
9 15 9 24 25 27 40 42 42 37 28 21 19 20 20 21 20 15 10 13 18 23 28 32 35 36 36 37 36 35 36 38 41 45 47 47 49 56 61 65 74 75 77 79
11 19 17 12 41 39 44 45 38 32 26 23 20 20 21 21 19 17 15 19 22 28 31 30 31 33 34 33 33 33 36 39 42 43 45 50 56 56 57 68 73 76 80 82
10 7 34 11 45 46 47 42 36 29 24 22 23 22 24 23 18 15 18 23 28 29 28 27 27 31 32 31 32 35 37 38 39 42 46 53 61 70 81 78 77 80 81 83
30 23 17 25 31 56 51 44 38 31 25 21 21 23 24 20 16 19 23 26 27 27 26 26 28 28 28 29 32 35 35 36 38 42 48 56 63 69 76 86 94 94 85 84
40 36 18 25 23 45 48 45 39 33 29 29 29 26 21 19 21 23 25 25 26 27 28 28 28 27 29 29 31 32 32 33 37 44 51 57 64 69 73 78 83 88 92 89
52 42 33 31 34 44 49 46 39 33 31 31 30 28 26 25 24 24 25 26 28 30 31 28 28 29 29 28 29 29 29 34 41 48 54 59 63 68 72 77 81 84 86 88
49 51 45 45 46 48 49 38 33 32 34 36 31 31 26 24 24 26 29 32 32 32 31 28 27 27 29 30 30 28 30 36 45 51 57 60 64 67 71 74 77 81 83 81
38 44 50 47 49 51 50 43 39 38 38 31 34 28 25 25 26 31 34 34 32 31 29 29 29 30 31 31 30 31 35 42 48 54 59 63 66 68 70 73 75 79 81 79
37 34 37 40 38 44 44 43 43 37 38 39 32 26 27 28 30 33 33 34 33 32 32 30 30 31 29 29 31 35 41 46 51 56 61 64 66 67 70 71 74 75 76 78
44 35 31 34 43 39 43 41 38 41 40 37 33 33 29 30 32 33 35 35 36 35 33 30 27 27 26 28 33 39 43 48 54 58 62 65 68 71 72 72 74 75 75 76
40 42 34 32 35 33 33 36 40 43 42 42 40 33 31 32 31 31 33 36 36 33 31 29 27 25 27 32 38 42 46 52 57 62 66 69 72 73 75 75 75 75 77 77
34 33 35 34 32 31 33 36 41 44 48 47 43 38 33 30 31 33 34 35 34 32 30 28 26 27 31 37 41 44 48 54 60 64 66 68 71 75 77 77 77 77 77 77
24 20 23 28 32 34 37 42 47 54 56 53 46 40 35 32 33 35 34 33 34 32 29 28 27 29 33 39 42 46 52 57 62 66 68 70 72 74 76 78 78 77 79 78
10 10 16 25 33 40 47 51 54 58 61 57 50 42 39 36 37 36 36 34 32 29 28 27 27 31 35 40 44 50 55 60 65 69 71 72 73 75 77 78 78 77 77 77
12 12 21 32 39 45 49 53 57 63 65 62 52 47 43 40 39 37 35 34 32 28 27 27 28 32 36 41 48 54 59 63 67 71 74 76 77 78 78 78 78 78 77 76
22 27 36 41 44 46 50 54 59 58 57 58 55 49 45 43 42 39 35 33 31 28 27 28 30 34 39 44 50 57 62 67 71 74 78 80 80 79 79 78 79 80 81 80
37 42 46 46 48 53 55 53 51 51 52 53 51 48 46 44 42 38 33 32 30 28 28 28 32 37 43 48 54 60 65 70 73 76 78 80 80 79 78 77 77 76 76 76
Wind_Direction_500mb
50 285 17 37 228 162 150 57 137 222 132 176 159 145 144 147 146 142 139 138 136 124 100 27 352 351 358 12 15 6 355 349 346 345 341 338 334 331 330 333 336 338 339 338
10 36 164 233 181 208 128 131 313 177 187 125 137 144 146 154 154 150 149 149 145 127 13 345 342 353 6 9 2 357 346 343 341 337 335 335 334 336 338 338 337 335 333 332
228 340 167 309 208 193 182 178 161 184 196 148 143 158 164 164 166 163 162 160 152 202 309 334 354 358 354 358 354 347 342 338 337 336 336 337 339 338 336 336 335 334 335 335
182 359 320 255 299 220 175 178 169 103 150 167 168 169 173 177 171 166 166 167 191 275 334 351 349 345 349 349 347 341 339 336 337 336 338 340 340 339 337 337 339 339 340 340
150 218 303 328 191 157 172 230 199 147 129 137 152 155 167 179 177 172 177 193 242 276 315 335 334 336 345 340 338 336 336 338 338 338 340 341 340 340 341 340 342 342 342 342
119 137 211 254 330 12 13 252 184 166 160 152 150 175 191 176 175 177 187 209 243 282 308 321 329 338 337 334 335 335 338 339 339 340 340 339 341 343 345 343 344 344 343 345
168 200 287 268 69 38 120 247 177 181 169 160 142 146 164 170 176 188 203 227 255 281 311 328 330 330 331 333 334 340 337 338 341 338 338 341 347 346 344 345 343 342 342 344
76 67 279 164 102 167 271 156 170 163 161 152 136 135 155 169 184 200 220 242 260 292 315 319 322 327 330 333 336 334 335 338 337 340 344 342 342 345 345 342 343 345 345 345
187 220 268 225 245 261 194 157 154 162 166 167 155 158 169 185 200 212 231 241 275 306 317 317 320 326 330 331 329 330 336 337 340 340 340 343 345 345 346 348 348 348 346 343
54 210 224 208 235 203 167 155 147 147 153 164 171 183 197 209 217 229 224 246 286 306 309 311 316 323 322 322 329 333 333 332 336 340 342 344 346 348 351 351 349 346 343 338
266 268 290 225 210 183 168 163 158 159 165 178 194 201 209 215 214 207 223 264 283 293 305 313 314 312 318 323 325 327 332 335 338 341 342 345 350 351 352 351 347 342 339 333
217 222 190 219 192 182 181 178 180 185 186 195 207 214 214 206 204 214 245 273 291 303 306 305 306 310 316 320 326 330 330 334 338 341 345 347 347 347 348 342 340 339 337 335
202 210 206 223 186 190 195 192 196 200 209 216 214 214 200 198 212 246 275 289 294 296 298 298 304 313 317 320 322 324 331 335 339 343 346 346 345 342 337 339 338 339 337 334
204 183 191 201 196 198 198 202 202 204 209 215 212 203 206 215 243 270 280 283 286 291 297 304 308 309 308 315 319 323 329 334 341 345 344 343 341 340 339 339 339 340 342 342
203 203 215 198 190 191 197 202 204 210 220 217 212 213 221 242 262 268 277 282 287 297 302 304 302 303 308 312 315 322 328 333 340 341 341 339 338 339 341 339 338 337 339 339
199 203 207 209 203 196 195 198 208 217 221 217 219 222 230 249 266 277 288 296 300 302 300 298 298 301 305 313 318 320 327 334 335 336 337 338 339 340 339 338 337 337 338 338
191 198 200 200 202 202 202 214 229 234 226 223 221 225 245 264 279 294 300 299 294 288 287 289 292 301 309 313 314 318 324 328 333 336 335 336 338 339 338 337 337 335 334 335
216 220 213 212 207 207 212 219 222 222 223 221 220 238 261 282 293 294 292 288 285 285 290 294 300 305 308 309 308 314 322 328 332 332 334 336 337 337 337 336 335 334 333 333
200 208 211 218 220 225 226 225 227 227 219 216 230 254 270 282 289 290 291 290 290 287 288 290 296 298 297 299 307 315 322 327 330 332 333 333 333 335 335 334 334 332 331 332
201 196 198 208 209 213 213 219 223 225 220 223 241 259 272 283 288 291 292 289 284 282 284 287 286 287 288 299 309 317 322 325 329 331 330 331 332 332 332 331 330 329 331 333
200 206 211 210 210 214 218 220 228 225 225 233 246 258 266 275 282 286 288 284 282 282 285 287 288 291 298 305 314 321 324 327 329 329 330 330 329 329 328 328 327 329 330 330
192 201 210 215 222 234 234 230 228 228 234 241 250 258 268 277 284 286 284 282 283 282 282 282 284 290 300 310 319 323 325 327 327 327 327 327 326 326 326 326 326 328 328 327
209 225 235 241 247 248 243 241 241 241 244 249 255 261 272 278 287 287 287 284 279 275 274 274 280 291 305 314 320 324 326 327 327 326 326 326 325 325 324 323 324 324 324 324
198 241 271 268 264 257 253 252 250 250 250 251 257 265 274 282 284 284 283 280 276 272 269 274 287 301 310 318 323 325 326 327 326 325 325 324 323 321 320 320 321 322 322 322
236 272 290 288 283 279 275 267 260 257 254 254 259 268 275 280 281 282 275 271 267 263 268 278 291 304 315 322 323 325 325 325 326 325 324 323 322 321 320 320 321 322 321 321
256 279 289 286 283 282 280 275 271 268 262 260 262 267 273 275 275 272 266 262 260 261 267 279 297 309 315 318 321 323 325 326 326 325 323 322 322 322 322 322 322 322 321 321
266 278 283 283 280 283 288 288 284 280 272 267 266 266 268 269 268 263 259 257 256 259 269 285 300 307 313 318 322 323 325 325 325 324 322 321 322 323 324 325 326 325 324 323
Wind_Speed_850mb
4 3 3 3 1 11 4 5 8 4 7 14 20 29 43 60 50 42 34 26 19 14 7 6 9 12 13 13 16 21 27 31 38 45 51 56 62 67 70 73 78 81 85 86
5 5 11 8 24 19 5 14 7 9 7 4 21 34 47 52 50 41 32 23 14 6 4 7 10 12 16 20 24 28 36 43 48 53 59 64 68 73 78 79 81 83 84 86
5 4 3 8 15 25 13 19 22 14 11 25 15 33 44 48 43 39 30 20 10 2 6 9 13 16 18 22 28 35 43 51 57 62 64 66 70 74 78 82 83 85 84 83
3 2 1 4 5 8 19 16 11 8 25 40 44 40 46 40 40 33 24 13 6 4 5 9 12 17 22 28 35 42 49 56 60 62 65 67 71 76 79 81 81 81 80 81
6 4 8 6 8 12 12 12 9 16 15 36 51 45 24 32 30 25 18 10 7 7 7 10 14 19 28 34 39 46 52 55 59 63 68 72 75 75 73 75 75 77 77 78
4 7 12 6 2 5 4 8 25 28 43 51 51 17 9 36 31 26 16 10 7 5 7 11 18 25 32 39 46 50 52 54 58 63 67 69 66 67 70 72 73 76 77 77
4 5 13 7 1 5 10 9 39 53 51 53 12 8 34 40 31 21 14 10 8 7 10 18 25 31 38 44 48 48 50 53 56 58 57 56 59 63 68 71 73 76 79 81
6 4 12 2 4 11 4 1 38 46 50 45 24 28 38 33 24 17 11 10 10 11 15 22 29 36 41 43 45 46 49 50 48 49 51 54 58 60 64 69 73 77 83 87
13 8 3 7 8 10 10 33 39 45 48 47 29 26 24 21 19 17 15 12 9 15 22 29 34 38 40 41 42 43 44 44 44 44 47 53 58 60 62 66 74 80 87 92
5 5 20 15 7 10 29 42 40 42 42 33 25 21 21 21 20 16 12 9 12 19 26 31 34 36 38 37 39 41 40 40 42 44 46 49 51 56 62 70 76 81 86 91
9 15 9 24 25 27 40 42 42 37 28 21 19 20 20 21 20 15 10 13 18 23 28 32 35 36 36 37 36 35 36 38 41 45 47 47 49 56 61 65 74 75 77 79
11 19 17 12 41 39 44 45 38 32 26 23 20 20 21 21 19 17 15 19 22 28 31 30 31 33 34 33 33 33 36 39 42 43 45 50 56 56 57 68 73 76 80 82
10 7 34 11 45 46 47 42 36 29 24 22 23 22 24 23 18 15 18 23 28 29 28 27 27 31 32 31 32 35 37 38 39 42 46 53 61 70 81 78 77 80 81 83
30 23 17 25 31 56 51 44 38 31 25 21 21 23 24 20 16 19 23 26 27 27 26 26 28 28 28 29 32 35 35 36 38 42 48 56 63 69 76 86 94 94 85 84
40 36 18 25 23 45 48 45 39 33 29 29 29 26 21 19 21 23 25 25 26 27 28 28 28 27 29 29 31 32 32 33 37 44 51 57 64 69 73 78 83 88 92 89
52 42 33 31 34 44 49 46 39 33 31 31 30 28 26 25 24 24 25 26 28 30 31 28 28 29 29 28 29 29 29 34 41 48 54 59 63 68 72 77 81 84 86 88
49 51 45 45 46 48 49 38 33 32 34 36 31 31 26 24 24 26 29 32 32 32 31 28 27 27 29 30 30 28 30 36 45 51 57 60 64 67 71 74 77 81 83 81
38 44 50 47 49 51 50 43 39 38 38 31 34 28 25 25 26 31 34 34 32 31 29 29 29 30 31 31 30 31 35 42 48 54 59 63 66 68 70 73 75 79 81 79
37 34 37 40 38 44 44 43 43 37 38 39 32 26 27 28 30 33 33 34 33 32 32 30 30 31 29 29 31 35 41 46 51 56 61 64 66 67 70 71 74 75 76 78
44 35 31 34 43 39 43 41 38 41 40 37 33 33 29 30 32 33 35 35 36 35 33 30 27 27 26 28 33 39 43 48 54 58 62 65 68 71 72 72 74 75 75 76
40 42 34 32 35 33 33 36 40 43 42 42 40 33 31 32 31 31 33 36 36 33 31 29 27 25 27 32 38 42 46 52 57 62 66 69 72 73 75 75 75 75 77 77
34 33 35 34 32 31 33 36 41 44 48 47 43 38 33 30 31 33 34 35 34 32 30 28 26 27 31 37 41 44 48 54 60 64 66 68 71 75 77 77 77 77 77 77
24 20 23 28 32 34 37 42 47 54 56 53 46 40 35 32 33 35 34 33 34 32 29 28 27 29 33 39 42 46 52 57 62 66 68 70 72 74 76 78 78 77 79 78
10 10 16 25 33 40 47 51 54 58 61 57 50 42 39 36 37 36 36 34 32 29 28 27 27 31 35 40 44 50 55 60 65 69 71 72 73 75 77 78 78 77 77 77
12 12 21 32 39 45 49 53 57 63 65 62 52 47 43 40 39 37 35 34 32 28 27 27 28 32 36 41 48 54 59 63 67 71 74 76 77 78 78 78 78 78 77 76
22 27 36 41 44 46 50 54 59 58 57 58 55 49 45 43 42 39 35 33 31 28 27 28 30 34 39 44 50 57 62 67 71 74 78 80 80 79 79 78 79 80 81 80
37 42 46 46 48 53 55 53 51 51 52 53 51 48 46 44 42 38 33 32 30 28 28 28 32 37 43 48 54 60 65 70 73 76 78 80 80 79 78 77 77 76 76 76
Wind_Direction_850mb
50 285 17 37 228 162 150 57 137 222 132 176 159 145 144 147 146 142 139 138 136 124 100 27 352 351 358 12 15 6 355 349 346 345 341 338 334 331 330 333 336 338 339 338
10 36 164 233 181 208 128 131 313 177 187 125 137 144 146 154 154 150 149 149 145 127 13 345 342 353 6 9 2 357 346 343 341 337 335 335 334 336 338 338 337 335 333 332
228 340 167 309 208 193 182 178 161 184 196 148 143 158 164 164 166 163 162 160 152 202 309 334 354 358 354 358 354 347 342 338 337 336 336 337 339 338 336 336 335 334 335 335
182 359 320 255 299 220 175 178 169 103 150 167 168 169 173 177 171 166 166 167 191 275 334 351 349 345 349 349 347 341 339 336 337 336 338 340 340 339 337 337 339 339 340 340
150 218 303 328 191 157 172 230 199 147 129 137 152 155 167 179 177 172 177 193 242 276 315 335 334 336 345 340 338 336 336 338 338 338 340 341 340 340 341 340 342 342 342 342
119 137 211 254 330 12 13 252 184 166 160 152 150 175 191 176 175 177 187 209 243 282 308 321 329 338 337 334 335 335 338 339 339 340 340 339 341 343 345 343 344 344 343 345
168 200 287 268 69 38 120 247 177 181 169 160 142 146 164 170 176 188 203 227 255 281 311 328 330 330 331 333 334 340 337 338 341 338 338 341 347 346 344 345 343 342 342 344
76 67 279 164 102 167 271 156 170 163 161 152 136 135 155 169 184 200 220 242 260 292 315 319 322 327 330 333 336 334 335 338 337 340 344 342 342 345 345 342 343 345 345 345
187 220 268 225 245 261 194 157 154 162 166 167 155 158 169 185 200 212 231 241 275 306 317 317 320 326 330 331 329 330 336 337 340 340 340 343 345 345 346 348 348 348 346 343
54 210 224 208 235 203 167 155 147 147 153 164 171 183 197 209 217 229 224 246 286 306 309 311 316 323 322 322 329 333 333 332 336 340 342 344 346 348 351 351 349 346 343 338
266 268 290 225 210 183 168 163 158 159 165 178 194 201 209 215 214 207 223 264 283 293 305 313 314 312 318 323 325 327 332 335 338 341 342 345 350 351 352 351 347 342 339 333
217 222 190 219 192 182 181 178 180 185 186 195 207 214 214 206 204 214 245 273 291 303 306 305 306 310 316 320 326 330 330 334 338 341 345 347 347 347 348 342 340 339 337 335
202 210 206 223 186 190 195 192 196 200 209 216 214 214 200 198 212 246 275 289 294 296 298 298 304 313 317 320 322 324 331 335 339 343 346 346 345 342 337 339 338 339 337 334
204 183 191 201 196 198 198 202 202 204 209 215 212 203 206 215 243 270 280 283 286 291 297 304 308 309 308 315 319 323 329 334 341 345 344 343 341 340 339 339 339 340 342 342
203 203 215 198 190 191 197 202 204 210 220 217 212 213 221 242 262 268 277 282 287 297 302 304 302 303 308 312 315 322 328 333 340 341 341 339 338 339 341 339 338 337 339 339
199 203 207 209 203 196 195 198 208 217 221 217 219 222 230 249 266 277 288 296 300 302 300 298 298 301 305 313 318 320 327 334 335 336 337 338 339 340 339 338 337 337 338 338
191 198 200 200 202 202 202 214 229 234 226 223 221 225 245 264 279 294 300 299 294 288 287 289 292 301 309 313 314 318 324 328 333 336 335 336 338 339 338 337 337 335 334 335
216 220 213 212 207 207 212 219 222 222 223 221 220 238 261 282 293 294 292 288 285 285 290 294 300 305 308 309 308 314 322 328 332 332 334 336 337 337 337 336 335 334 333 333
200 208 211 218 220 225 226 225 227 227 219 216 230 254 270 282 289 290 291 290 290 287 288 290 296 298 297 299 307 315 322 327 330 332 333 333 333 335 335 334 334 332 331 332
201 196 198 208 209 213 213 219 223 225 220 223 241 259 272 283 288 291 292 289 284 282 284 287 286 287 288 299 309 317 322 325 329 331 330 331 332 332 332 331 330 329 331 333
200 206 211 210 210 214 218 220 228 225 225 233 246 258 266 275 282 286 288 284 282 282 285 287 288 291 298 305 314 321 324 327 329 329 330 330 329 329 328 328 327 329 330 330
192 201 210 215 222 234 234 230 228 228 234 241 250 258 268 277 284 286 284 282 283 282 282 282 284 290 300 310 319 323 325 327 327 327 327 327 326 326 326 326 326 328 328 327
209 225 235 241 247 248 243 241 241 241 244 249 255 261 272 278 287 287 287 284 279 275 274 274 280 291 305 314 320 324 326 327 327 326 326 326 325 325 324 323 324 324 324 324
198 241 271 268 264 257 253 252 250 250 250 251 257 265 274 282 284 284 283 280 276 272 269 274 287 301 310 318 323 325 326 327 326 325 325 324 323 321 320 320 321 322 322 322
236 272 290 288 283 279 275 267 260 257 254 254 259 268 275 280 281 282 275 271 267 263 268 278 291 304 315 322 323 325 325 325 326 325 324 323 322 321 320 320 321 322 321 321
256 279 289 286 283 282 280 275 271 268 262 260 262 267 273 275 275 272 266 262 260 261 267 279 297 309 315 318 321 323 325 326 326 325 323 322 322 322 322 322 322 322 321 321
266 278 283 283 280 283 288 288 284 280 272 267 266 266 268 269 268 263 259 257 256 259 269 285 300 307 313 318 322 323 325 325 325 324 322 321 322 323 324 325 326 325 324 323